Forside
METAR-TAF:

METAR-TAF

Lufthavne :

Tomahawk Regional Airport

Tomahawk, Wisconsin, USA

Breddekreds: 45-28-08N, længdekreds: 089-48-20W, højde: 453 m

Aktuelle vejr

Denne rapport blev lavet for 29 minutter siden, kl. 02:35 UTC
Vind stille
Temperatur 17°C
Fugtighed 88%
Tryk 1013 hPa
Sigt: 16.1 km
skyfri

METAR: KTKV 250235Z AUTO 00000KT 10SM CLR 17/15 A2990 RMK AO2 T01660148 PWINO

Tid: 22:04 (03:04 UTC)


TAF: fraværende

Vejrobservationer og prognoser fra mere end 4000 lufthavne (METAR og TAF).

De gule og røde prikker repræsenterer de meteorologiske stationer.

Flyt musen over at se navnet på stationen.

Så klik over at se vejr observationer og prognoser.

At skifte det kort: Klik på de grønne knapper med et sort kors for at zoome ind; på den grønne knap med en bindestreg for at zoome ud; eller på de grønne pile for tilstødende kort.


METAR-TAF: